Miscellaneous Local Product
Issued by NWS Hastings, NE

Home | Current Version | Previous Version | Text Only | Print | Product List | Glossary On
Versions: 1 2 3 4 5 6 7 8 9 10 11 12 13 14 15 16 17 18 19 20 21 22 23 24 25 26 27 28 29 30 31 32 33 34 35 36 37 38 39 40 41 42 43 44 45 46 47 48 49 50
000
AXUS43 KGID 270202
MISGRI

GID CWA HOURLY WEATHER ROUNDUP
NATIONAL WEATHER SERVICE HASTINGS NE
900 PM CDT THU MAY 26 2016

NOTE: "FAIR" INDICATES FEW OR NO CLOUDS BELOW 12,000 FEET WITH NO
SIGNIFICANT WEATHER AND/OR OBSTRUCTIONS TO VISIBILITY.

...SOUTH CENTRAL NEBRASKA...

CITY           SKY/WX    TMP DP  RH WIND       PRES   REMARKS
GRAND ISLAND   CLOUDY    63  56  78 E7        29.76R
HASTINGS       CLOUDY    61  56  83 E15       29.70F
KEARNEY        CLOUDY    63  54  72 E12       29.71F
ORD            CLOUDY    66  58  75 SE12      29.75R
YORK           CLOUDY    61  57  88 SE22G28   29.75R
AURORA         CLOUDY    63  59  87 SE9       29.78R
LEXINGTON      CLOUDY    65  57  75 E9        29.71F
HOLDREGE       CLOUDY    64  58  82 E10       29.70R
HEBRON         CLOUDY    61  60  97 E15G26    29.76R

...NEBRASKA PANHANDLE...

CITY           SKY/WX    TMP DP  RH WIND       PRES   REMARKS
CHADRON        CLOUDY    55  48  77 SW7       29.80F
ALLIANCE       CLOUDY    61  38  42 N10       29.82R
SCOTTSBLUFF    CLOUDY    60  42  51 W9        29.84F
SIDNEY         CLOUDY    57  43  59 NW13      29.83S

...WESTERN AND NORTH CENTRAL NEBRASKA...

CITY           SKY/WX    TMP DP  RH WIND       PRES   REMARKS
VALENTINE      TSTM      61  52  72 NE13      29.78R
AINSWORTH      PTCLDY    66  55  67 E12       29.77S
ONEILL         CLOUDY    70  57  63 E14       29.78R
BROKEN BOW     CLOUDY    68  55  63 E17G25    29.75R
IMPERIAL       LGT RAIN  58  50  75 E24G31    29.78R
NORTH PLATTE   LGT RAIN  62  54  74 E9        29.78R
MCCOOK         CLOUDY    65  58  78 E10       29.68R

...EASTERN NEBRASKA...

CITY           SKY/WX    TMP DP  RH WIND       PRES   REMARKS
NORFOLK        CLOUDY    63  58  83 E3        29.75F
SO SIOUX CITY  CLOUDY    68  57  68 SE15      29.80F
TEKAMAH        CLOUDY    65  56  72 SE23      29.80F
COLUMBUS       CLOUDY    63  54  72 SW8G23    29.73R
ALBION         CLOUDY    62  57  83 CALM      29.77R
OMAHA EPPLEY   RAIN      63  58  83 SE13      29.87R
OFFUTT AFB     HVY RAIN  63  59  88 E5        29.88R
MILLARD        RAIN      63  59  88 SE7       29.89S
LINCOLN        CLOUDY    63  59  87 E18       29.78F
NEBRASKA CITY  HVY RAIN  63  61  95 SE22G35   29.90R
BEATRICE       LGT RAIN  63  57  81 E24G33    29.80R
FALLS CITY     TSTM      63  63 100 NE15      29.87F

...NORTHERN KANSAS...

CITY           SKY/WX    TMP DP  RH WIND       PRES   REMARKS
GOODLAND       NOT AVBL
HILL CITY      CLOUDY    65  58  78 E5        29.62F
NORTON         CLOUDY    68  52  56 NE10      29.66R
PHILLIPSBURG   PTCLDY    64  55  72 E23G32    29.61F
SMITH CENTER   LGT RAIN  63  57  82 E20       29.78R
BELOIT         CLOUDY    63  61  94 SW21G35   29.82R
HAYS           CLOUDY    32 N/A N/A E29G41    29.64R THUNDER WCI  18
RUSSELL        TSTM      59  56  89 SE22      29.73R
CONCORDIA      TSTM      62  58  86 E18G29    29.73R
SALINA         CLOUDY    65  61  87 E15G25    29.69F
TOPEKA         TSTM      63  60  90 NE14      29.86F



USA.gov is the U.S. government's official web portal to all federal, state and local government web resources and services.